N2834S KDXR-KFOK

Flight info

Callsign N2834S
Flight time N/A
Altitude 2500
Route KFOK
Aircraft SF50/L-V/N

Departure

Time 2026-04-21 22:33
Airport Danbury Municipal Airport (KDXR)

Arrival

Time N/A
Airport Francis S Gabreski Airport (KFOK)
Time Latitude Longitude Altitude Speed Heading
2026-04-21 22:24 41.37420 -73.47628 459 ft 0 kts 220°
2026-04-21 22:31 41.37409 -73.47624 459 ft 8 kts 154°
2026-04-21 22:31 41.37366 -73.47631 459 ft 5 kts 189°
2026-04-21 22:32 41.37335 -73.47614 460 ft 12 kts 139°
2026-04-21 22:32 41.37274 -73.47627 460 ft 8 kts 235°
2026-04-21 22:32 41.37232 -73.47777 459 ft 47 kts 248°
2026-04-21 22:32 41.37041 -73.48455 501 ft 105 kts 249°
2026-04-21 22:33 41.36830 -73.49440 964 ft 114 kts 253°
2026-04-21 22:33 41.36680 -73.50512 1575 ft 126 kts 255°
2026-04-21 22:33 41.36536 -73.51818 2005 ft 160 kts 258°
2026-04-21 22:33 41.36428 -73.53302 2855 ft 159 kts 262°
2026-04-21 22:34 41.36533 -73.54804 3468 ft 171 kts 279°
2026-04-21 22:34 41.36805 -73.56502 3513 ft 200 kts 278°
2026-04-21 22:34 41.37088 -73.58458 3508 ft 226 kts 278°
2026-04-21 22:34 41.37393 -73.60614 3511 ft 244 kts 278°
2026-04-21 22:35 41.37704 -73.62875 3504 ft 249 kts 278°
2026-04-21 22:35 41.38026 -73.65134 3504 ft 251 kts 278°
2026-04-21 22:35 41.38360 -73.67433 3506 ft 255 kts 278°
2026-04-21 22:35 41.38691 -73.69750 3503 ft 254 kts 278°
2026-04-21 22:36 41.39345 -73.74373 3503 ft 255 kts 278°